Location: doobydoo
(53.3403°N, 2.6908°W)
Time: 08:40:31
(UTC+00:00)

ISS - Pass Details

Date: 02 December 2021
Orbit: 413 x 422 km, 51.6° (Epoch: 19 January)

Event Time Altitude Azimuth Distance (km) Brightness Sun altitude
Rises 16:48:38 0° 267° (W) 2,383 1.5 -7.5°
Reaches altitude 10° 16:50:45 10° 265° (W) 1,516 0.4 -7.8°
Maximum altitude 16:54:08 66° 183° (S) 466 -3.4 -8.3°
Drops below altitude 10° 16:57:30 10° 100° (E) 1,510 -1.4 -8.7°
Enters shadow 16:57:54 - 100° (E) 1,674 -1.2 -8.8°
